[[{"header":{"parameterUnit":"m.s-1","parameterCategory":1,"la1":30.2991,"la2":30.254,"lo1":-89.0895,"lo2":-89.0444,"dy":0.0017,"dx":0.0017,"nx":28,"ny":28,"refTime":"2023-10-14T03:00:00:Z","depth":0,"parameterNumber":2,"parameterNumberName":"U-component_of_WINDS"},"data":[0,0,0,0,0,0,0,0,0,0,0,0,0,0,0,0,0,0,0,0,0,0,0,0,0,0,0,0,0,0,0,0,0,0,0,0,0,0,0,0,0,0,0,0,0,0,0,0,0,0,0,0,0,0,0,0,0,0,-1.3609,-1.3608,0,-1.3555,-1.3555,-1.3554,-1.349,-1.3489,-1.3488,-1.3487,-1.3429,-1.3428,-1.3428,0,0,0,0,0,0,0,0,0,0,0,0,0,-1.3654,-1.3653,-1.3609,-1.3608,-1.3608,-1.3555,-1.3555,-1.3554,-1.349,-1.3489,-1.3488,-1.3487,-1.3429,-1.3428,-1.3428,0,0,0,0,0,0,0,0,0,0,0,0,0,-1.3621,-1.3653,-1.3609,-1.357,-1.3566,-1.3555,-1.3555,-1.3554,-1.3491,-1.3489,-1.3488,-1.3486,-1.3429,-1.3428,-1.3427,-1.3451,0,0,-1.3424,-1.3424,0,0,0,0,0,0,0,0,-1.3622,-1.3619,-1.3576,-1.3572,-1.3568,-1.3528,-1.3549,-1.3519,-1.3491,-1.3519,-1.3487,-1.3486,-1.3463,-1.3459,-1.3452,-1.3448,-1.3445,-1.3424,-1.3424,-1.3423,-1.3423,0,0,0,0,0,0,0,-1.3625,-1.3621,-1.3587,-1.3576,-1.357,-1.3554,-1.3547,-1.3543,-1.35,-1.3516,-1.3512,-1.3506,-1.346,-1.3453,-1.345,-1.3445,-1.3424,-1.3424,-1.3423,-1.3423,-1.3458,-1.3459,0,0,0,0,0,0,-1.3633,-1.3623,-1.3589,-1.3586,-1.3592,-1.3554,-1.3547,-1.3542,-1.3499,-1.3492,-1.3508,-1.3504,-1.3455,-1.3451,-1.3448,-1.3473,-1.3423,-1.3422,-1.3422,-1.3456,-1.3458,-1.3459,0,0,0,0,0,0,-1.3635,-1.3631,-1.3591,-1.3603,-1.3597,-1.3555,-1.355,-1.3542,-1.3535,-1.3493,-1.3485,-1.3509,-1.3454,-1.3449,-1.3451,-1.347,-1.3422,-1.3421,-1.3454,-1.3457,-1.3459,-1.3523,0,0,0,0,0,0,-1.3636,-1.3632,-1.3641,-1.3604,-1.3597,-1.3596,-1.3551,-1.3542,-1.3534,-1.3528,-1.3492,-1.3484,-1.3453,-1.3453,-1.345,-1.3468,-1.342,-1.3452,-1.3455,-1.3458,-1.3519,-1.3528,-1.3535,0,0,0,0,0,-1.3638,-1.366,-1.3642,-1.3638,-1.3607,-1.3598,-1.3593,-1.3558,-1.3535,-1.3544,-1.3517,-1.3485,-1.3468,-1.3453,-1.345,-1.3468,-1.3451,-1.3454,-1.3458,-1.3516,-1.3526,-1.3534,0,0,0,0,0,0,-1.3699,-1.3655,-1.3634,-1.3645,-1.3626,-1.3587,-1.3596,-1.3569,-1.3555,-1.355,-1.3505,-1.3498,-1.3505,-1.3486,-1.347,-1.3488,-1.3455,-1.3458,-1.35,-1.351,-1.3517,-1.3522,-1.342,0,0,0,0,0,-1.3714,-1.3711,-1.3672,-1.3685,-1.3677,-1.3639,-1.3633,-1.3607,-1.3585,-1.3577,-1.355,-1.3529,-1.3519,-1.3513,-1.3501,-1.3516,-1.3507,-1.3527,-1.3534,-1.3541,-1.3544,-1.3551,-1.3559,-1.3471,-1.3471,-1.3471,0,0,-1.3745,-1.372,-1.372,-1.3697,-1.3679,-1.3677,-1.3632,-1.3631,-1.3628,-1.3576,-1.3577,-1.3556,-1.353,-1.3539,-1.3541,-1.3523,-1.3566,-1.3545,-1.3551,-1.355,-1.3555,-1.3564,-1.3571,-1.3473,-1.3473,-1.3472,0,0,-1.3799,-1.378,-1.379,-1.3773,-1.3747,-1.3722,-1.3724,-1.369,-1.3675,-1.3675,-1.3636,-1.3632,-1.3615,-1.3598,-1.3587,-1.3637,-1.3607,-1.3634,-1.3674,-1.3681,-1.3688,-1.3694,-1.3713,-1.372,-1.3637,-1.3637,-1.3637,0,-1.384,-1.3835,-1.3798,-1.3799,-1.379,-1.3744,-1.3754,-1.3739,-1.371,-1.3705,-1.3685,-1.3665,-1.3643,-1.3648,-1.366,-1.3653,-1.3654,-1.3638,-1.3691,-1.3696,-1.3701,-1.3718,-1.3725,-1.3641,-1.364,-1.364,-1.3639,0,-1.3887,-1.3885,-1.3895,-1.3871,-1.3862,-1.3868,-1.3831,-1.3827,-1.3802,-1.3779,-1.378,-1.3753,-1.3735,-1.3734,-1.3709,-1.3735,-1.3725,-1.3699,-1.3665,-1.3714,-1.3729,-1.3735,-1.3646,-1.3644,-1.3643,-1.3642,0,0,-1.3979,-1.3934,-1.3938,-1.3927,-1.3895,-1.3892,-1.3895,-1.388,-1.3878,-1.3859,-1.3861,-1.3849,-1.3825,-1.3813,-1.3785,-1.3792,-1.3834,-1.3764,-1.3763,-1.3779,-1.3862,-1.3882,-1.3891,-1.3814,-1.3815,-1.3816,-1.3864,0,-1.4028,-1.4032,-1.3999,-1.4012,-1.4009,-1.3966,-1.3969,-1.3949,-1.3927,-1.3921,-1.3896,-1.3889,-1.3857,-1.3849,-1.3854,-1.3828,-1.385,-1.3824,-1.3814,-1.3815,-1.3824,-1.3898,-1.392,-1.3967,-1.387,-1.3871,-1.3871,0,-1.4086,-1.4073,-1.4086,-1.4055,-1.4052,-1.4056,-1.4039,-1.4034,-1.4011,-1.3994,-1.3982,-1.3951,-1.3951,-1.3919,-1.3919,-1.3902,-1.3896,-1.3883,-1.3884,-1.3882,-1.3847,-1.3899,-1.3981,-1.3989,-1.388,-1.3879,-1.3879,0,-1.4153,-1.4138,-1.4144,-1.4135,-1.4099,-1.4102,-1.4087,-1.4063,-1.4056,-1.4041,-1.4036,-1.4021,-1.4013,-1.4001,-1.3967,-1.3946,-1.3971,-1.3936,-1.3958,-1.3959,-1.3965,-1.3965,-1.4048,-1.3961,-1.396,-1.396,-1.396,0,-1.4211,-1.4221,-1.4174,-1.4178,-1.4188,-1.4149,-1.4159,-1.414,-1.4119,-1.4118,-1.4078,-1.4078,-1.4032,-1.4027,-1.4,-1.4004,-1.4001,-1.3987,-1.398,-1.3991,-1.3993,-1.3987,-1.3983,-1.3962,-1.3962,-1.3961,-1.3961,0,-1.4288,-1.4256,-1.426,-1.4226,-1.4217,-1.4226,-1.4196,-1.4198,-1.4174,-1.4173,-1.4171,-1.4133,-1.4124,-1.4089,-1.4071,-1.4053,-1.4067,-1.4052,-1.4075,-1.4071,-1.4095,-1.4094,-1.4177,-1.4187,-1.4093,-1.4094,-1.4095,0,-1.4328,-1.4335,-1.4301,-1.4299,-1.4286,-1.4281,-1.4274,-1.4236,-1.4231,-1.4206,-1.4211,-1.4199,-1.4188,-1.4177,-1.4147,-1.4133,-1.4118,-1.4149,-1.4116,-1.4128,-1.412,-1.412,-1.4121,-1.4156,-1.4157,-1.4158,-1.4159,0,-1.4403,-1.4387,-1.4379,-1.4366,-1.4359,-1.4347,-1.4332,-1.4332,-1.4289,-1.4285,-1.4277,-1.4268,-1.4251,-1.4241,-1.4222,-1.4205,-1.4176,-1.417,-1.4174,-1.4186,-1.4199,-1.4193,-1.4095,-1.4168,-1.4167,-1.4166,-1.4166,-1.4166,-1.4462,-1.4467,-1.4445,-1.4437,-1.4423,-1.441,-1.441,-1.4387,-1.438,-1.4364,-1.4342,-1.4336,-1.4313,-1.4286,-1.4272,-1.4267,-1.425,-1.4256,-1.4258,-1.426,-1.4266,-1.42,-1.4263,-1.4263,-1.4262,-1.4262,-1.4262,0,-1.4536,-1.452,-1.4513,-1.4495,-1.4489,-1.4462,-1.4445,-1.4442,-1.4438,-1.442,-1.441,-1.4401,-1.439,-1.436,-1.4347,-1.4348,-1.4334,-1.4346,-1.4346,-1.4343,-1.4281,-1.4279,-1.4358,-1.4358,-1.4358,-1.4358,-1.4358,-1.4358,-1.4574,-1.458,-1.4562,-1.4561,-1.4544,-1.454,-1.4532,-1.452,-1.4505,-1.4497,-1.4489,-1.447,-1.4447,-1.4431,-1.4421,-1.4412,-1.4409,-1.4426,-1.4413,-1.4356,-1.4347,-1.4338,-1.4336,-1.4425,-1.4425,-1.4474,-1.4475,-1.4475]},{"header":{"parameterUnit":"m.s-1","parameterCategory":1,"la1":30.2991,"la2":30.254,"lo1":-89.0895,"lo2":-89.0444,"dy":0.0017,"dx":0.0017,"nx":28,"ny":28,"refTime":"2023-10-14T03:00:00:Z","depth":0,"parameterNumber":3,"parameterNumberName":"V-component_of_WINDS"},"data":[0,0,0,0,0,0,0,0,0,0,0,0,0,0,0,0,0,0,0,0,0,0,0,0,0,0,0,0,0,0,0,0,0,0,0,0,0,0,0,0,0,0,0,0,0,0,0,0,0,0,0,0,0,0,0,0,0,0,-0.4833,-0.4836,0,-0.5101,-0.5104,-0.5107,-0.5221,-0.522,-0.522,-0.5219,-0.5498,-0.5506,-0.5514,0,0,0,0,0,0,0,0,0,0,0,0,0,-0.4422,-0.4429,-0.4833,-0.4836,-0.484,-0.5101,-0.5105,-0.5108,-0.5221,-0.522,-0.522,-0.5219,-0.5496,-0.5505,-0.5515,0,0,0,0,0,0,0,0,0,0,0,0,0,-0.4636,-0.4431,-0.4832,-0.4927,-0.4938,-0.51,-0.5105,-0.5109,-0.5221,-0.522,-0.522,-0.5219,-0.5493,-0.5504,-0.5516,-0.5604,0,0,-0.5552,-0.5557,0,0,0,0,0,0,0,0,-0.4624,-0.4651,-0.491,-0.4921,-0.4934,-0.5127,-0.5062,-0.5275,-0.5221,-0.5114,-0.5219,-0.5219,-0.5376,-0.5397,-0.5449,-0.5617,-0.5629,-0.5553,-0.556,-0.5565,-0.5569,0,0,0,0,0,0,0,-0.4609,-0.464,-0.4939,-0.4914,-0.4928,-0.4958,-0.4987,-0.5103,-0.5246,-0.5123,-0.5132,-0.5162,-0.5382,-0.5437,-0.5457,-0.5633,-0.5553,-0.5563,-0.5571,-0.5575,-0.5888,-0.5889,0,0,0,0,0,0,-0.4578,-0.4627,-0.4931,-0.4947,-0.4774,-0.4966,-0.4999,-0.5066,-0.5245,-0.5271,-0.5162,-0.5166,-0.5418,-0.5443,-0.5467,-0.5583,-0.5565,-0.5576,-0.5583,-0.5887,-0.5888,-0.589,0,0,0,0,0,0,-0.4569,-0.4604,-0.492,-0.479,-0.4832,-0.4973,-0.5048,-0.5071,-0.5127,-0.5275,-0.5301,-0.5193,-0.5418,-0.545,-0.5569,-0.5594,-0.5582,-0.5592,-0.5885,-0.5887,-0.5889,-0.5815,0,0,0,0,0,0,-0.4556,-0.46,-0.4634,-0.479,-0.4839,-0.5017,-0.5049,-0.5077,-0.5147,-0.5154,-0.531,-0.5335,-0.542,-0.5551,-0.5581,-0.561,-0.5602,-0.5884,-0.5886,-0.5888,-0.5816,-0.5814,-0.5813,0,0,0,0,0,-0.4541,-0.4604,-0.4636,-0.4672,-0.4884,-0.5018,-0.5046,-0.5141,-0.5148,-0.5185,-0.5279,-0.533,-0.5586,-0.5562,-0.5597,-0.563,-0.5883,-0.5886,-0.5888,-0.5817,-0.5815,-0.5813,0,0,0,0,0,0,-0.445,-0.4626,-0.4663,-0.4777,-0.4881,-0.5037,-0.5086,-0.5136,-0.5241,-0.5244,-0.5359,-0.5393,-0.5503,-0.5578,-0.5548,-0.5725,-0.5739,-0.5748,-0.5672,-0.5671,-0.567,-0.565,-0.5612,0,0,0,0,0,-0.4442,-0.4535,-0.4684,-0.4771,-0.4821,-0.4943,-0.5005,-0.5069,-0.5182,-0.5228,-0.5331,-0.544,-0.5545,-0.5612,-0.5717,-0.5826,-0.5863,-0.5867,-0.5865,-0.5863,-0.5871,-0.5935,-0.5939,-0.5898,-0.5898,-0.5898,0,0,-0.4429,-0.4537,-0.4589,-0.4755,-0.4843,-0.4937,-0.498,-0.5078,-0.515,-0.5243,-0.5362,-0.5441,-0.557,-0.5684,-0.574,-0.5751,-0.5889,-0.5866,-0.5863,-0.5873,-0.5938,-0.5942,-0.5945,-0.59,-0.59,-0.59,0,0,-0.4454,-0.4543,-0.4626,-0.4712,-0.4845,-0.4926,-0.4945,-0.5093,-0.5148,-0.5269,-0.5341,-0.5427,-0.5606,-0.5695,-0.5764,-0.5819,-0.5871,-0.585,-0.5842,-0.5904,-0.5907,-0.591,-0.5932,-0.5938,-0.5857,-0.5857,-0.5857,0,-0.4421,-0.4565,-0.4662,-0.4756,-0.4827,-0.4914,-0.4998,-0.5078,-0.5238,-0.5286,-0.5295,-0.5521,-0.5614,-0.5751,-0.5764,-0.5816,-0.5843,-0.5834,-0.5898,-0.5903,-0.5908,-0.5929,-0.5937,-0.5854,-0.5854,-0.5854,-0.5855,0,-0.4519,-0.4617,-0.4668,-0.4818,-0.4895,-0.4984,-0.5095,-0.5162,-0.5218,-0.5298,-0.542,-0.5534,-0.5663,-0.57,-0.5757,-0.5845,-0.5848,-0.5876,-0.5892,-0.5906,-0.5929,-0.5938,-0.5849,-0.585,-0.5851,-0.5852,0,0,-0.4496,-0.4697,-0.4715,-0.4784,-0.4935,-0.5014,-0.5106,-0.5231,-0.5286,-0.5393,-0.5475,-0.5622,-0.5649,-0.5727,-0.5794,-0.5847,-0.5885,-0.587,-0.5874,-0.587,-0.5991,-0.5971,-0.5979,-0.5919,-0.5921,-0.5923,-0.5981,0,-0.4542,-0.4711,-0.48,-0.4931,-0.5024,-0.5106,-0.5187,-0.5289,-0.5365,-0.5456,-0.5541,-0.5645,-0.5671,-0.5719,-0.5775,-0.5869,-0.5912,-0.5865,-0.5998,-0.6002,-0.5965,-0.599,-0.5969,-0.6019,-0.599,-0.5992,-0.5993,0,-0.462,-0.4724,-0.4863,-0.5003,-0.5045,-0.5116,-0.5238,-0.5323,-0.544,-0.5492,-0.5577,-0.5643,-0.5745,-0.5751,-0.5893,-0.586,-0.5919,-0.5973,-0.5977,-0.5995,-0.6,-0.6011,-0.6037,-0.6045,-0.6007,-0.6006,-0.6005,0,-0.4591,-0.4766,-0.4872,-0.4929,-0.5094,-0.5142,-0.5213,-0.533,-0.5399,-0.5505,-0.5551,-0.5668,-0.5733,-0.5822,-0.5918,-0.5913,-0.6052,-0.6066,-0.61,-0.6097,-0.6128,-0.6125,-0.6166,-0.6161,-0.6161,-0.6161,-0.6161,0,-0.4635,-0.4717,-0.4861,-0.4927,-0.5022,-0.5123,-0.5215,-0.5293,-0.5395,-0.5479,-0.5557,-0.5633,-0.5754,-0.5846,-0.5922,-0.6029,-0.6057,-0.6103,-0.6123,-0.6098,-0.6092,-0.614,-0.614,-0.6163,-0.6163,-0.6162,-0.6162,0,-0.462,-0.4719,-0.4841,-0.4986,-0.5025,-0.5089,-0.5214,-0.5282,-0.5361,-0.5465,-0.5495,-0.5621,-0.5733,-0.5837,-0.5987,-0.6038,-0.6146,-0.617,-0.6106,-0.6118,-0.6146,-0.6143,-0.6222,-0.6238,-0.6219,-0.6219,-0.6219,0,-0.4642,-0.4708,-0.4859,-0.492,-0.4989,-0.5085,-0.5156,-0.5258,-0.5328,-0.5466,-0.5517,-0.5634,-0.5734,-0.5909,-0.6015,-0.6129,-0.6158,-0.6178,-0.6176,-0.6149,-0.6161,-0.6157,-0.6164,-0.6177,-0.6176,-0.6176,-0.6176,0,-0.4672,-0.4718,-0.4816,-0.493,-0.5011,-0.5107,-0.5206,-0.5251,-0.5371,-0.5447,-0.5561,-0.5638,-0.579,-0.5906,-0.6032,-0.6108,-0.6163,-0.6175,-0.6189,-0.6166,-0.6127,-0.615,-0.6104,-0.6174,-0.6174,-0.6174,-0.6174,-0.6174,-0.4679,-0.4741,-0.4857,-0.4963,-0.5047,-0.5137,-0.5207,-0.5294,-0.5391,-0.5522,-0.5576,-0.5692,-0.5808,-0.5983,-0.6057,-0.6151,-0.6163,-0.6183,-0.6189,-0.6193,-0.6188,-0.6109,-0.6174,-0.6174,-0.6174,-0.6175,-0.6175,0,-0.4715,-0.4793,-0.4889,-0.5023,-0.5106,-0.5148,-0.5258,-0.5326,-0.5427,-0.5529,-0.5625,-0.5756,-0.5869,-0.5982,-0.6101,-0.6154,-0.6182,-0.6182,-0.6181,-0.6197,-0.617,-0.6147,-0.6157,-0.6157,-0.6157,-0.6157,-0.6157,-0.6157,-0.4743,-0.485,-0.4909,-0.5058,-0.5137,-0.525,-0.531,-0.5393,-0.5475,-0.5618,-0.5711,-0.5783,-0.589,-0.6017,-0.6123,-0.6153,-0.6195,-0.6187,-0.6225,-0.6198,-0.6199,-0.62,-0.6178,-0.6195,-0.6195,-0.6245,-0.6245,-0.6246]}]]